Location: Helsinki
(60.1699°N, 24.9384°E)
Time: 19:20:35
(UTC+03:00)

Vanguard 3 - Visible Passes

Search period start: 21 October 2020 00:00
Search period end: 30 October 2020 23:00
Orbit: 508 x 3263 km, 33.3° (Epoch: 20 October)

Date Brightness Start Highest point End Pass type
(mag) Time Alt. Az. Time Alt. Az. Time Alt. Az.
22 Oct 11.9 06:48:36 10° SSE 06:53:27 11° SE 06:58:08 10° SE visible
23 Oct 11.7 07:39:20 10° S 07:50:11 18° SSE 08:00:04 10° ESE visible
24 Oct 11.8 06:28:07 10° SSE 06:35:38 13° SE 06:42:54 10° ESE visible
25 Oct 11.6 06:20:31 10° SSW 06:32:21 20° SSE 06:43:27 10° ESE visible
26 Oct 11.6 05:08:45 10° S 05:17:44 15° SE 05:26:38 10° ESE visible
27 Oct 11.5 06:02:04 10° SSW 06:14:28 21° SSE 06:26:32 10° ESE visible
28 Oct 11.5 04:50:01 10° S 04:59:48 17° SE 05:09:50 10° ESE visible
29 Oct 11.5 03:41:50 10° SE 03:45:35 11° SE 03:49:26 10° ESE visible
29 Oct 11.3 05:43:57 10° SSW 05:56:32 23° SSE 06:09:20 10° ESE visible
30 Oct 11.3 04:31:44 10° S 04:41:52 18° SE 04:52:39 10° ESE visible
30 Oct 11.3 06:39:42 10° SW 06:53:36 26° S 07:07:26 10° SE visible
